Miscellaneous Local Product
Issued by NWS Hastings, NE

Home | Current Version | Previous Version | Text Only | Print | Product List | Glossary Off
Versions: 1 2 3 4 5 6 7 8 9 10 11 12 13 14 15 16 17 18 19 20 21 22 23 24 25 26 27 28 29 30 31 32 33 34 35 36 37 38 39 40 41 42 43 44 45 46 47 48 49 50

000
AXUS43 KGID 111802
MISGRI

GID CWA HOURLY WEATHER ROUNDUP
NATIONAL WEATHER SERVICE HASTINGS NE
1200 PM CST MON DEC 11 2017

NOTE: "FAIR" INDICATES FEW OR NO CLOUDS BELOW 12,000 FEET WITH NO
SIGNIFICANT WEATHER AND/OR OBSTRUCTIONS TO VISIBILITY.

...SOUTH CENTRAL NEBRASKA...

CITY           SKY/WX    TMP DP  RH WIND       PRES   REMARKS
GRAND ISLAND   CLOUDY    47  26  44 N30G40    30.12F
KEARNEY        SUNNY     50  22  33 N30G39    30.14S
HASTINGS       MOSUNNY   49  24  37 N32G47    30.13S
ORD            CLOUDY    46  26  45 NW36G54   30.12R
YORK           MOSUNNY   50  27  40 NW28G41   30.07S
AURORA         CLOUDY    48  26  43 NW33      30.11R
LEXINGTON      SUNNY     54  20  26 N35G43    30.16S
HOLDREGE       SUNNY     52  24  32 NW28G37   30.15S
HEBRON         MOSUNNY   52  25  34 N31G44    30.10S

...NEBRASKA PANHANDLE...

CITY           SKY/WX    TMP DP  RH WIND       PRES   REMARKS
CHADRON        PTSUNNY   45  17  32 NW24G32   30.31S
ALLIANCE       CLOUDY    47  13  25 NW28G37   30.28R
SCOTTSBLUFF    SUNNY     50  13  22 NW28G33   30.35S
SIDNEY         SUNNY     49  13  23 N33G46    30.31R

...WESTERN AND NORTH CENTRAL NEBRASKA...

CITY           SKY/WX    TMP DP  RH WIND       PRES   REMARKS
VALENTINE      CLOUDY    42  27  55 NW30G39   30.21R
AINSWORTH      CLOUDY    40  29  64 N31G41    30.18S WCI  29
ONEILL         CLOUDY    43  31  63 NW30G40   30.12R
BROKEN BOW     SUNNY     48  24  39 N37G46    30.16R
IMPERIAL       SUNNY     51  14  22 NW23G36   30.24F
NORTH PLATTE   SUNNY     52  18  26 N25G43    30.21R
MCCOOK         SUNNY     56  14  19 NW32G43   30.20F

...EASTERN NEBRASKA...

CITY           SKY/WX    TMP DP  RH WIND       PRES   REMARKS
NORFOLK        CLOUDY    44  31  60 NW29G40   30.04R
SO SIOUX CITY  CLOUDY    44  33  65 NW36G44   29.96R
TEKAMAH        CLOUDY    48  31  51 NW37G49   29.98R
COLUMBUS       CLOUDY    47  29  49 NW32G40   30.05S
ALBION         CLOUDY    46  30  52 NW28G46   30.08R
OMAHA EPPLEY   CLOUDY    48  31  51 NW36G44   29.96S
OFFUTT AFB     CLOUDY    48  30  49 NW26G40   29.98R
MILLARD        CLOUDY    49  32  52 NW20G32   29.99S
LINCOLN        PTSUNNY   51  28  41 NW28G43   30.05S
NEBRASKA CITY  CLOUDY    51  31  46 NW32G44   29.99S
BEATRICE       SUNNY     52  28  39 NW35G44   30.05S
FALLS CITY     SUNNY     54  25  32 NW28G38   29.98S

...NORTHERN KANSAS...

CITY           SKY/WX    TMP DP  RH WIND       PRES   REMARKS
GOODLAND       SUNNY     56  11  16 N31G44    30.26S
HILL CITY      SUNNY     60  17  18 NW16G30   30.19F
NORTON         CLEAR     57   3  11 NW33G39   30.17S
PHILLIPSBURG   SUNNY     57  12  17 NW21G32   30.16F
SMITH CENTER   SUNNY     54  18  24 NW26      30.15F
HAYS           MOSUNNY   59  17  19 NW17G29   30.19F
RUSSELL        PTSUNNY   58  17  20 NW25G32   30.15F
CONCORDIA      MOSUNNY   56  18  22 NW29G38   30.10R
SALINA         CLOUDY    59  18  20 NW24G30   30.12S
TOPEKA         PTSUNNY   57  20  23 NW26G37   30.01F



USA.gov is the U.S. government's official web portal to all federal, state and local government web resources and services.